Location: Caltech
(34.1382°N, 118.1253°W)
Time: 05:42:47
(UTC-07:00)

OAO 2 Rocket - Visible Passes

Search period start: 20 July 2017 00:00
Search period end: 30 July 2017 00:00
Orbit: 677 x 746 km, 35.0° (Epoch: 19 July)

Date Brightness Start Highest point End Pass type
(mag) Time Alt. Az. Time Alt. Az. Time Alt. Az.
20 Jul 3.4 20:22:40 10° W 20:27:44 80° N 20:32:43 10° E visible
20 Jul 3.1 22:07:36 10° W 22:12:35 76° SSW 22:13:11 66° SE visible
21 Jul 3.2 21:09:50 10° W 21:14:53 89° SSW 21:18:24 19° E visible
21 Jul 4.8 22:54:50 10° W 22:57:21 26° WSW 22:57:21 26° WSW visible
22 Jul 3.4 21:57:00 10° W 22:01:53 55° SSW 22:02:35 50° SSE visible
23 Jul 3.3 20:59:13 10° W 21:04:15 71° SSW 21:07:50 19° ESE visible
23 Jul 5.1 22:44:34 10° W 22:46:47 20° WSW 22:46:47 20° WSW visible
24 Jul 4.0 21:46:31 10° W 21:51:06 36° SSW 21:52:03 33° S visible
25 Jul 3.7 20:48:37 10° W 20:53:32 50° SSW 20:57:22 16° SE visible
25 Jul 5.5 22:34:55 10° WSW 22:36:19 14° SW 22:36:19 14° SW visible
26 Jul 4.8 21:36:19 10° W 21:40:14 23° SSW 21:41:40 20° S visible
27 Jul 4.4 20:38:10 10° W 20:42:43 33° SSW 20:47:04 11° SE visible
28 Jul 5.5 21:26:56 10° WSW 21:29:17 13° SW 21:31:29 10° S visible
29 Jul 5.2 20:28:04 10° W 20:31:49 21° SSW 20:35:31 10° SSE visible
